Overview Statistics Trail Chart Weather Telemetry Raw packets
 

This is the latest recevied weather packets stored in our database for station/object K1TTC. If no packets are shown the sender has not sent any weather packets the latest 10 day(s).

<< 43 44 45 46 47 48 49 >>
Time Temp. Humidity Pressure Rain* Wind** Luminosity Snow
1787963905 24.44° C 59% 1017.4 hPa 0 mm - 0 W/m² -
1787963303 25° C 58% 1017.4 hPa 0 mm - 0 W/m² -
1787962704 25.56° C 57% 1017.4 hPa 0 mm - 0 W/m² -
1787962110 25.56° C 56% 1017.2 hPa 0 mm - 0 W/m² -
1787961501 26.11° C 56% 1017 hPa 0 mm - 0 W/m² -
1787960893 26.67° C 55% 1016.8 hPa 0 mm - 0 W/m² -
1787960293 26.67° C 54% 1016.8 hPa 0 mm - 0 W/m² -
1787959693 26.67° C 53% 1016.7 hPa 0 mm - 0 W/m² -
1787959117 27.22° C 53% 1016.6 hPa 0 mm - 5 W/m² -
1787958493 27.78° C 53% 1016.6 hPa 0 mm - 12 W/m² -
1787958015 27.78° C 53% 1016.5 hPa 0 mm - 9 W/m² -
1787957293 27.78° C 53% 1016.3 hPa 0 mm - 19 W/m² -
1787956691 28.33° C 52% 1016.3 hPa 0 mm - 26 W/m² -
1787956208 28.33° C 52% 1016.3 hPa 0 mm - 30 W/m² -
1787955608 28.33° C 52% 1016 hPa 0 mm - 33 W/m² -
1787955006 28.89° C 51% 1016 hPa 0 mm - 39 W/m² -
1787954291 28.89° C 51% 1016.1 hPa 0 mm - 44 W/m² -
1787953688 28.89° C 52% 1016.1 hPa 0 mm - 53 W/m² -
1787953090 29.44° C 52% 1016.1 hPa 0 mm - 79 W/m² -
1787952486 29.44° C 51% 1016.1 hPa 0 mm - 63 W/m² -
1787951887 29.44° C 52% 1016 hPa 0 mm - 107 W/m² -
1787951287 29.44° C 51% 1016 hPa 0 mm - 146 W/m² -
1787950689 29.44° C 51% 1015.8 hPa 0 mm - 98 W/m² -
1787950198 29.44° C 51% 1015.9 hPa 0 mm - 149 W/m² -
1787949485 30° C 50% 1015.9 hPa 0 mm - 148 W/m² -

* Rain latest hour (hover to see other rain measurements)
** Current wind speed in m/s (hover to see current wind gust speed)